Regional Weather Roundup
Issued by NWS Portland, ME

Current Version | Previous Version | Text Only | Print | Product List | Glossary Off
Versions: 1 2 3 4 5 6 7 8 9 10 11 12 13 14 15 16 17 18 19 20 21 22 23 24 25 26 27 28 29 30 31 32 33 34 35 36 37 38 39 40 41 42 43 44 45 46 47 48 49 50
000 ASUS41 KGYX 230710 RWRGYX WEATHER ROUNDUP FOR MAINE AND NEW HAMPSHIRE NATIONAL WEATHER SERVICE GRAY ME 300 AM EDT WED MAY 23 2018 MEZ002-005-006-010-012-015-018-020-021-024-026-027-029-230800- MAINE CITY SKY/WX TMP DP RH WIND PRES REMARKS PORTLAND CLOUDY 54 50 86 S5 29.86F SANFORD CLOUDY 53 50 89 SW6 29.87S BAR HARBOR CLOUDY 51 48 89 S6 29.89F WISCASSET CLOUDY 53 50 89 VRB3 29.87F ROCKLAND LGT RAIN 52 49 89 SW7 29.86F FRYEBURG CLOUDY 55 51 86 E3 29.85F LEWISTONAUBURN CLOUDY 54 50 86 S5 29.86F AUGUSTA CLOUDY 53 50 89 VRB3 29.86F WATERVILLE CLOUDY 54 50 86 CALM 29.83F BANGOR LGT RAIN 54 51 90 S6 29.86F GREENVILLE N/A 52 51 97 CALM 29.83F MILLINOCKET CLOUDY 55 52 89 CALM 29.85F HOULTON CLOUDY 58 49 72 SW7 29.82F PRESQUE ISLE CLOUDY 57 45 64 SW5 29.81F FRENCHVILLE LGT RAIN 57 47 69 S5 29.79F CARIBOU MOCLDY 58 45 62 SE3 29.80F $$ NHZ002-005-008-009-011-012-014-230800- NEW HAMPSHIRE CITY SKY/WX TMP DP RH WIND PRES REMARKS PORTSMOUTH CLOUDY 55 51 87 CALM 29.85F ROCHESTER CLOUDY 53 52 96 CALM 29.85F NASHUA CLOUDY 55 53 93 CALM 29.87F MANCHESTER CLOUDY 58 51 78 S3 29.85F CONCORD CLOUDY 54 50 86 S3 29.86F LACONIA CLOUDY 54 50 86 W5 29.87S PLYMOUTH LGT RAIN 53 52 95 CALM 29.86S BERLIN CLOUDY 54 52 93 CALM 29.85S WHITEFIELD LGT RAIN 54 53 97 CALM 29.86S JAFFREY CLOUDY 53 53 100 VRB7 29.88F FOG KEENE CLOUDY 55 53 93 S6 29.87F LEBANON LGT RAIN 55 51 86 CALM 29.86S MT WASHINGTON LGT RAIN 37 37 100 NW36 N/A VSB 0 $$ VTZ005-007-008-230800- VERMONT CITY SKY/WX TMP DP RH WIND PRES REMARKS ST JOHNSBURY N/A 54 53 97 MISG 29.84F MONTPELIER LGT RAIN 53 53 100 CALM 29.89S FOG BURLINGTON CLOUDY 57 53 86 S6 29.86S $$ MAZ007-012-024-CTZ003-RIZ002-NYZ038-NYZ072-230800- SOUTHERN NEW ENGLAND AND NY CITY SKY/WX TMP DP RH WIND PRES REMARKS BOSTON CLOUDY 54 51 90 SW7 29.88F WORCESTER CLOUDY 52 52 100 W12 29.87F FOG NANTUCKET CLOUDY 53 53 100 NE5 29.90S FOG PROVIDENCE CLOUDY 54 52 93 SW5 29.89 HARTFORD CLOUDY 55 55 100 S7 29.90F ALBANY CLOUDY 58 53 84 S8 29.89F NEW YORK CITY LGT RAIN 59 56 89 CALM 29.91F FOG $$ ANZ081-ANZ082-ANZ150-NHZ014-MEZ023>029-230800- COASTAL MARINE OBSERVATIONS STATION/POSITION TIME TEMP WIND PRES WAVE AIR SEA DIR/SP/G HT/PER (UTC) (F) (DEG/KT/KT) (MB) (FT/S) MOUNT DESERT ROC 0700 49 180/ 13/ 14 1012.2F MATINICUS ROCK 0700 49 210/ 15/ 16 1011.1F ISLE OF SHOALS 0700 54 200/ 13/ 14 1010.8F JEFFREYS LEDGE 0636 52 N/A 3/ 4 CASHES LEDGE BUO 0650 51 50 1011.5F 3/ 4 $$ .............KEY.............. WCI - WIND CHILL TC - TEMPERATURE IN CELSIUS VSB - VISIBILITY IN MILES HX - HEAT INDEX FAIR- INDICATES FEW OR NO CLOUDS BELOW 12,000 FT, WITH NO SIGNIFICANT WEATHER AND/OR OBSTRUCTIONS TO VISIBILITY.

USA.gov is the U.S. government's official web portal to all federal, state and local government web resources and services.